{"data":{"norad_id":58108,"intl_designator":"2023-161M","name":"STARLINK-30611","alt_names":[],"object_type":"PAYLOAD","status":"ACTIVE","operator":null,"country":"US","launch_date":"2023-10-21","launch_site_code":"AFWTR","launch_vehicle":null,"mission":null,"orbit_class":"UNKNOWN","rcs_meters":null,"size_class":null,"mass_kg":null,"dimensions":null,"purposes":["comms"],"wikipedia_slug":null,"has_3d_model":false,"image_url":null,"decayed_at":null,"tle_current":{"epoch":"2026-05-25T00:01:59.010816Z","epoch_age_seconds":71109,"freshness":"FRESH","line1":"1 58108U 23161M   26145.00137744  .00002081  00000+0  72721-4 0  9992","line2":"2 58108  53.1594 157.4908 0001110  89.6202 270.4928 15.34397138146293","mean_motion":15.34397138,"eccentricity":0.000111,"inclination_deg":53.1594,"raan_deg":157.4908,"arg_perigee_deg":89.6202,"mean_anomaly_deg":270.4928,"bstar":7.2721e-5,"rev_number":14629,"period_min":93.84793312877,"perigee_km":461.95241247658,"apogee_km":463.47108089835,"semimajor_km":6840.8487466875,"source":"CELESTRAK","updated_at":"2026-05-25T13:38:18.528320Z"}}}